G4RHR Weather Reports


time (UTC)temp
F
wind
direction
speed
knots
gust
knots
rain 1hr
in
rain 24hr
in
rain mn
in
humidity
%
barometer
mb
20260510163901 54 49 7.8 14.8 0.00 0.00 0.00 61 1013.9
20260510163003 54 53 8.7 14.8 0.00 0.00 0.00 62 1014.0
20260510162100 54 50 7.8 16.5 0.00 0.00 0.00 64 1014.0
20260510161409 54 51 8.7 14.8 0.00 0.00 0.00 62 1014.0
20260510160300 54 37 8.7 14.8 0.00 0.00 0.00 63 1014.0
20260510155401 54 44 8.7 16.5 0.00 0.00 0.00 63 1014.0
20260510154501 54 47 9.6 18.2 0.00 0.00 0.00 62 1014.3
20260510153814 54 47 9.6 19.1 0.00 0.00 0.00 63 1014.4
20260510152700 54 46 7.8 13.9 0.00 0.00 0.00 64 1014.4
20260510151801 54 41 8.7 16.5 0.00 0.00 0.00 65 1014.4
20260510150901 54 39 9.6 16.5 0.00 0.00 0.00 63 1014.7
20260510150003 55 51 8.7 16.5 0.00 0.00 0.00 64 1014.7
20260510145100 55 51 8.7 16.5 0.00 0.00 0.00 63 1014.7
20260510144201 55 57 8.7 16.5 0.00 0.00 0.00 65 1014.9
20260510143301 55 58 9.6 14.8 0.00 0.00 0.00 66 1014.9
20260510142400 54 51 7.8 16.5 0.00 0.00 0.00 67 1015.1
20260510141501 55 48 9.6 20.9 0.00 0.00 0.00 66 1015.1
20260510140603 55 55 9.6 16.5 0.00 0.00 0.00 66 1015.1
20260510135703 54 58 9.6 16.5 0.00 0.00 0.00 67 1015.1
20260510134801 55 59 8.7 16.5 0.00 0.00 0.00 67 1015.2
20260510133902 56 53 8.7 14.8 0.00 0.00 0.00 66 1015.2
20260510133001 56 49 10.4 14.8 0.00 0.00 0.00 63 1015.2
20260510132101 56 60 9.6 17.4 0.00 0.00 0.00 66 1015.2
20260510131201 56 50 8.7 17.4 0.00 0.00 0.00 66 1015.3
20260510130301 57 47 8.7 14.8 0.00 0.00 0.00 64 1015.4
20260510125400 56 50 8.7 14.8 0.00 0.00 0.00 63 1015.5
20260510124501 57 46 9.6 15.6 0.00 0.00 0.00 61 1015.6
20260510123600 57 50 9.6 17.4 0.00 0.00 0.00 60 1015.6
20260510122701 57 41 10.4 19.1 0.00 0.00 0.00 60 1015.7
20260510121800 56 35 10.4 20.0 0.00 0.00 0.00 62 1015.7
20260510120902 56 32 8.7 19.1 0.00 0.00 0.00 63 1015.8
20260510120210 55 39 8.7 19.1 0.00 0.00 0.00 65 1015.9
20260510115102 55 33 7.8 15.6 0.00 0.00 0.00 67 1016.0
20260510114201 55 30 7.8 15.6 0.00 0.00 0.00 67 1015.9
20260510113300 54 29 8.7 17.4 0.00 0.00 0.00 68 1016.0
20260510112609 54 42 8.7 15.6 0.00 0.00 0.00 69 1016.1
20260510111503 54 43 8.7 16.5 0.00 0.00 0.00 70 1016.1
20260510110602 54 35 8.7 17.4 0.00 0.00 0.00 70 1016.1
20260510105700 54 45 8.7 14.8 0.00 0.00 0.00 69 1016.2
20260510104801 54 46 7.8 15.6 0.00 0.00 0.00 69 1016.3
20260510103901 55 49 8.7 14.8 0.00 0.00 0.00 69 1016.3
20260510103214 55 50 7.8 13.9 0.00 0.00 0.00 70 1016.3
20260510102100 55 50 7.0 13.0 0.00 0.00 0.00 71 1016.5
20260510101200 54 49 7.8 14.8 0.00 0.00 0.00 71 1016.5
20260510100303 54 57 7.8 17.4 0.00 0.00 0.00 71 1016.4
20260510095406 55 61 9.6 16.5 0.00 0.00 0.00 69 1016.6
20260510094501 55 53 7.0 13.0 0.00 0.00 0.00 70 1016.5
20260510093600 54 47 8.7 15.6 0.00 0.00 0.00 70 1016.5
20260510092700 54 48 9.6 15.6 0.00 0.00 0.00 70 1016.6
20260510091801 54 48 8.7 14.8 0.00 0.00 0.00 71 1016.8
20260510090901 54 46 8.7 15.6 0.00 0.00 0.00 73 1016.7
20260510090000 54 47 8.7 15.6 0.00 0.00 0.00 73 1016.7
20260510085103 54 48 8.7 18.2 0.00 0.00 0.00 73 1016.7
20260510084200 54 47 8.7 13.9 0.00 0.00 0.00 72 1016.7
20260510083514 54 52 8.7 16.5 0.00 0.00 0.00 72 1016.7
20260510082401 55 48 7.8 16.5 0.00 0.00 0.00 73 1016.7
20260510081714 55 40 7.8 16.5 0.00 0.00 0.00 73 1016.7
20260510080600 55 42 8.7 18.2 0.00 0.00 0.00 74 1016.6
20260510075913 55 46 8.7 18.2 0.00 0.00 0.00 75 1016.6
20260510074801 55 42 8.7 15.6 0.00 0.00 0.00 75 1016.5
20260510073901 54 43 8.7 15.6 0.00 0.00 0.00 75 1016.6
20260510073000 54 37 7.8 14.8 0.00 0.00 0.00 76 1016.6
20260510072100 54 43 7.0 14.8 0.00 0.00 0.00 79 1016.7
20260510071200 54 52 8.7 14.8 0.00 0.00 0.00 79 1016.9
20260510070512 54 46 9.6 16.5 0.00 0.00 0.00 79 1016.7
20260510065403 53 38 7.8 13.9 0.00 0.00 0.00 80 1016.6
20260510064503 53 44 7.0 13.9 0.00 0.00 0.00 82 1016.7
20260510063600 53 48 6.1 11.3 0.00 0.00 0.00 83 1016.6
20260510062700 53 47 7.0 14.8 0.00 0.00 0.00 83 1016.4
20260510061803 53 45 7.0 13.0 0.00 0.00 0.00 83 1016.3
20260510061111 52 45 7.0 13.0 0.00 0.00 0.00 84 1016.4
20260510060000 51 39 7.0 13.0 0.00 0.00 0.00 86 1016.4
20260510055102 50 40 7.0 14.8 0.00 0.00 0.00 86 1016.3
20260510054200 50 38 7.0 12.2 0.00 0.00 0.00 87 1016.2
20260510053511 50 40 5.2 12.2 0.00 0.00 0.00 87 1016.2
20260510052401 50 38 6.1 11.3 0.00 0.00 0.00 88 1016.3
20260510051500 50 37 6.1 12.2 0.00 0.00 0.00 88 1016.2
20260510050601 50 37 6.1 12.2 0.00 0.00 0.00 88 1016.3
20260510045701 50 13 5.2 11.3 0.00 0.00 0.00 89 1016.2
20260510045012 50 360 5.2 13.0 0.00 0.00 0.00 90 1016.4
20260510043900 49 360 5.2 11.3 0.00 0.00 0.00 90 1016.4
20260510043212 49 360 4.3 11.3 0.00 0.00 0.00 91 1016.5
20260510042101 49 360 4.3 8.7 0.00 0.00 0.00 90 1016.6
20260510041201 49 360 3.5 9.6 0.00 0.00 0.00 90 1016.7
20260510040300 49 360 3.5 9.6 0.00 0.01 0.00 90 1016.7
20260510035401 49 360 4.3 9.6 0.00 0.01 0.00 90 1016.7
20260510034500 49 360 4.3 11.3 0.00 0.01 0.00 91 1016.6
20260510033811 49 360 6.1 13.0 0.00 0.01 0.00 91 1016.6
20260510032702 49 360 4.3 13.0 0.00 0.01 0.00 91 1016.7
20260510032016 49 360 6.1 13.9 0.00 0.01 0.00 92 1016.6
20260510030901 49 360 5.2 13.0 0.00 0.01 0.00 92 1016.6
20260510030000 49 360 5.2 10.4 0.00 0.01 0.00 92 1016.6
20260510025101 49 360 4.3 10.4 0.00 0.01 0.00 92 1016.7
20260510024201 49 360 3.5 8.7 0.00 0.01 0.00 91 1016.8
20260510023301 49 360 4.3 11.3 0.00 0.01 0.00 92 1016.9
20260510022400 49 360 5.2 12.2 0.00 0.01 0.00 92 1016.9
20260510021501 49 360 4.3 9.6 0.00 0.01 0.00 92 1017.1
20260510020600 49 360 3.5 8.7 0.00 0.01 0.00 92 1017.1
20260510015912 49 360 4.3 11.3 0.00 0.01 0.00 93 1017.1
20260510014801 49 360 4.3 8.7 0.00 0.01 0.00 93 1017.0
20260510013901 49 360 3.5 8.7 0.00 0.01 0.00 93 1016.9
20260510013001 49 360 3.5 9.6 0.00 0.01 0.00 93 1016.8
20260510012103 49 360 3.5 7.8 0.00 0.01 0.00 92 1016.7
20260510011200 49 360 3.5 8.7 0.00 0.01 0.00 93 1016.9
20260510010301 49 360 3.5 7.8 0.00 0.01 0.00 92 1016.8
20260510005400 50 360 3.5 7.8 0.00 0.01 0.00 92 1016.9
20260510004501 50 360 3.5 7.0 0.00 0.01 0.00 92 1017.0
20260510003601 50 360 2.6 7.0 0.00 0.01 0.00 92 1017.1
20260510002700 50 360 2.6 5.2 0.00 0.01 0.00 92 1017.2
20260510001801 50 360 2.6 8.7 0.00 0.01 0.00 92 1017.2
20260510000900 50 360 3.5 7.0 0.00 0.01 0.00 92 1017.2
20260510000001 50 360 2.6 7.0 0.00 0.01 0.00 92 1017.2
20260509235101 50 360 3.5 7.8 0.00 0.01 0.01 92 1017.2
20260509234412 50 360 3.5 8.7 0.00 0.01 0.01 92 1017.1
20260509233300 50 360 3.5 7.8 0.00 0.01 0.01 91 1017.2
20260509232400 50 360 3.5 8.7 0.00 0.01 0.01 91 1017.1
20260509231501 50 360 3.5 7.0 0.00 0.01 0.01 90 1017.1
20260509230601 50 360 3.5 7.8 0.00 0.01 0.01 90 1017.2
20260509225701 50 360 3.5 8.7 0.00 0.01 0.01 89 1017.2
20260509224805 50 360 2.6 5.2 0.00 0.01 0.01 89 1017.3
20260509223900 50 360 1.7 3.5 0.00 0.01 0.01 88 1017.4
20260509223000 51 360 1.7 3.5 0.00 0.01 0.01 88 1017.4
20260509222313 51 360 1.7 3.5 0.00 0.01 0.01 88 1017.3
20260509221201 51 360 3.5 5.2 0.00 0.01 0.01 87 1017.1
20260509220513 52 360 3.5 5.2 0.00 0.01 0.01 87 1017.1
20260509215403 52 29 2.6 5.2 0.00 0.01 0.01 87 1017.1
20260509214500 52 31 2.6 6.1 0.00 0.01 0.01 86 1017.2
20260509213600 52 40 2.6 4.3 0.00 0.01 0.01 86 1017.1
20260509212701 52 45 3.5 7.8 0.00 0.01 0.01 86 1017.2
20260509211801 52 50 2.6 7.0 0.00 0.01 0.01 85 1017.2
20260509210900 53 38 2.6 5.2 0.00 0.01 0.01 84 1017.1
20260509210001 53 49 2.6 4.3 0.00 0.01 0.01 83 1017.0
20260509205101 53 47 2.6 7.0 0.00 0.01 0.01 82 1016.9
20260509204200 53 47 3.5 7.8 0.00 0.01 0.01 82 1016.9
20260509203511 54 45 3.5 7.8 0.00 0.01 0.01 81 1016.9
20260509202400 54 45 3.5 7.0 0.00 0.01 0.01 78 1016.7
20260509201505 54 50 3.5 7.0 0.00 0.01 0.01 76 1016.7
20260509200601 54 51 3.5 7.8 0.00 0.01 0.01 75 1016.8
20260509195703 55 50 3.5 8.7 0.00 0.01 0.01 74 1016.7
20260509194801 56 48 3.5 7.8 0.00 0.01 0.01 73 1016.8
20260509193900 56 49 3.5 7.0 0.00 0.01 0.01 71 1016.7
20260509193000 57 45 3.5 6.1 0.00 0.01 0.01 68 1016.7
20260509192100 57 52 2.6 7.8 0.00 0.01 0.01 65 1016.6
20260509191413 58 61 2.6 7.8 0.00 0.01 0.01 64 1016.5
20260509190301 58 54 4.3 7.8 0.00 0.01 0.01 62 1016.5
20260509185400 59 59 4.3 8.7 0.00 0.01 0.01 60 1016.5
20260509184500 60 59 3.5 7.8 0.00 0.01 0.01 58 1016.3
20260509183601 61 61 4.3 8.7 0.00 0.01 0.01 57 1016.3
20260509182700 62 58 5.2 9.6 0.00 0.01 0.01 54 1016.2
20260509181803 63 60 4.3 10.4 0.00 0.01 0.01 53 1016.0
20260509180900 63 59 4.3 9.6 0.00 0.01 0.01 56 1016.0
20260509180211 64 68 4.3 8.7 0.00 0.01 0.01 56 1016.0
20260509175100 64 83 4.3 8.7 0.00 0.01 0.01 61 1016.2
20260509174200 65 85 5.2 8.7 0.00 0.01 0.01 60 1016.3
20260509173301 65 88 5.2 8.7 0.00 0.01 0.01 59 1016.3
20260509172400 65 92 5.2 9.6 0.00 0.01 0.01 56 1016.4
20260509171502 66 90 5.2 9.6 0.00 0.01 0.01 56 1016.5
20260509170603 66 92 5.2 8.7 0.00 0.01 0.01 57 1016.5
20260509165701 67 97 4.3 8.7 0.00 0.01 0.01 56 1016.5
20260509164801 67 106 2.6 8.7 0.00 0.01 0.01 56 1016.6